Spearman, TX

2:23 AM CDT on October 01, 2016 (GMT -0500)
Pampa / Mesa Vista

Weather History for KBPC - May, 2013

Change the Weather History Date:

Thursday, May 23, 2013

  Actual Average (KBGD) Record (KBGD)
Temperature  
Mean Temperature 66 °F 70 °F  
Max Temperature 78 °F 83 °F 103 °F (2000)
Min Temperature 55 °F 58 °F 44 °F (1967)
Degree Days  
Heating Degree Days 0 1  
Month to date heating degree days 56  
Since 1 July heating degree days 3759  
Cooling Degree Days 2 6  
Month to date cooling degree days 96  
Year to date cooling degree days 140  
Growing Degree Days 16 (Base 50)    
Moisture  
Dew Point 54 °F    
Average Humidity 62    
Maximum Humidity 83    
Minimum Humidity 31    
Precipitation  
Precipitation 0.00 in 0.12 in 3.36 in (2002)
Month to date precipitation 1.86  
Year to date precipitation 6.02  
Snow  
Snow 0.00 in - T in (1954)
Month to date snowfall  
Since 1 July snowfall  
Snow Depth -    
Sea Level Pressure  
Sea Level Pressure 29.98 in    
Wind  
Wind Speed 12 mph (East)    
Max Wind Speed 23 mph    
Max Gust Speed 36 mph    
Visibility 10 miles    
Events      
T = Trace of Precipitation, MM = Missing Value Source: NWS Daily Summary

Daily Weather History Graph

Daily Weather History Graph

Search for Another Location

Airport or City:

Trip Planner

Search our weather history database for the weather conditions in past years. The results will help you decide how hot, cold, wet, or windy it might be!

Date:

Astronomy

May. 23, 2013 Rise Set
Actual Time 6:32 AM CDT 8:49 PM CDT
Civil Twilight 6:03 AM CDT 9:18 PM CDT
Nautical Twilight 5:28 AM CDT 9:54 PM CDT
Astronomical Twilight 4:49 AM CDT 10:33 PM CDT
Moon 7:26 PM CDT (5/23) 5:15 AM CDT (5/23)
Length of Visible Light 15h 14m
Length of Day
14h 16m
Waxing Gibbous, 97% of the Moon is Illuminated
May 23
Waxing Gibbous
May 24
Full
May 31
Last Quarter
Jun 8
New
Jun 16
First Quarter

Hourly Weather History & Observations

Time (CDT) Temp. Dew Point Humidity Pressure Visibility Wind Dir Wind Speed Gust Speed Precip Events Conditions
12:15 AM 71.6 °F 39.2 °F 31% 29.87 in 10.0 mi ESE 13.8 mph 21.9 mph N/A   Clear
12:35 AM 69.8 °F 41.0 °F 35% 29.88 in 10.0 mi East 9.2 mph - N/A   Clear
12:55 AM 68.0 °F 41.0 °F 37% 29.88 in 10.0 mi East 10.4 mph - N/A   Clear
1:15 AM 64.4 °F 42.8 °F 45% 29.89 in 10.0 mi ENE 11.5 mph 17.3 mph N/A   Clear
1:35 AM 68.0 °F 41.0 °F 37% 29.89 in 10.0 mi ESE 12.7 mph 19.6 mph N/A   Clear
1:55 AM 66.2 °F 42.8 °F 43% 29.89 in 10.0 mi ESE 13.8 mph 19.6 mph N/A   Clear
2:15 AM 64.4 °F 42.8 °F 45% 29.88 in 10.0 mi East 10.4 mph 17.3 mph N/A   Clear
2:35 AM 64.4 °F 44.6 °F 49% 29.88 in 10.0 mi East 12.7 mph 18.4 mph N/A   Clear
2:55 AM 64.4 °F 44.6 °F 49% 29.88 in 10.0 mi East 10.4 mph - N/A   Clear
3:15 AM 62.6 °F 46.4 °F 55% 29.89 in 10.0 mi ESE 9.2 mph - N/A   Clear
3:35 AM 62.6 °F 46.4 °F 55% 29.90 in 10.0 mi East 8.1 mph - N/A   Clear
3:55 AM 62.6 °F 46.4 °F 55% 29.89 in 10.0 mi ESE 8.1 mph - N/A   Clear
4:15 AM 62.6 °F 46.4 °F 55% 29.90 in 10.0 mi East 8.1 mph - N/A   Clear
4:35 AM 60.8 °F 46.4 °F 59% 29.91 in 10.0 mi East 5.8 mph - N/A   Clear
4:55 AM 59.0 °F 48.2 °F 67% 29.91 in 10.0 mi East 5.8 mph - N/A   Clear
5:15 AM 59.0 °F 48.2 °F 67% 29.91 in 10.0 mi East 5.8 mph - N/A   Clear
5:35 AM 59.0 °F 50.0 °F 72% 29.91 in 10.0 mi East 6.9 mph - N/A   Clear
5:55 AM 59.0 °F 50.0 °F 72% 29.92 in 10.0 mi East 4.6 mph - N/A   Clear
6:15 AM 57.2 °F 50.0 °F 77% 29.92 in 10.0 mi East 5.8 mph - N/A   Clear
6:35 AM 57.2 °F 50.0 °F 77% 29.93 in 10.0 mi ENE 4.6 mph - N/A   Clear
6:55 AM 55.4 °F 50.0 °F 82% 29.94 in 10.0 mi East 5.8 mph - N/A   Clear
7:15 AM 57.2 °F 51.8 °F 82% 29.94 in 10.0 mi East 6.9 mph - N/A   Clear
7:35 AM 59.0 °F 51.8 °F 77% 29.95 in 10.0 mi ENE 5.8 mph - N/A   Clear
7:55 AM 59.0 °F 51.8 °F 77% 29.98 in 10.0 mi NE 6.9 mph - N/A   Clear
8:15 AM 60.8 °F 53.6 °F 77% 29.98 in 10.0 mi ENE 11.5 mph - N/A   Clear
8:35 AM 62.6 °F 53.6 °F 72% 29.98 in 10.0 mi East 10.4 mph - N/A   Clear
8:55 AM 64.4 °F 53.6 °F 68% 30.00 in 10.0 mi ENE 9.2 mph - N/A   Clear
9:15 AM 66.2 °F 55.4 °F 68% 30.00 in 10.0 mi East 12.7 mph - N/A   Clear
9:35 AM 68.0 °F 55.4 °F 64% 30.01 in 10.0 mi ENE 12.7 mph - N/A   Clear
9:55 AM 68.0 °F 55.4 °F 64% 30.02 in 10.0 mi ENE 13.8 mph 18.4 mph N/A   Clear
10:15 AM 69.8 °F 55.4 °F 60% 30.03 in 10.0 mi East 12.7 mph 17.3 mph N/A   Scattered Clouds
10:35 AM 69.8 °F 55.4 °F 60% 30.02 in 10.0 mi East 11.5 mph 19.6 mph N/A   Mostly Cloudy
10:55 AM 73.4 °F 57.2 °F 57% 30.03 in 10.0 mi East 17.3 mph 21.9 mph N/A   Mostly Cloudy
11:15 AM 73.4 °F 57.2 °F 57% 30.03 in 10.0 mi East 12.7 mph - N/A   Scattered Clouds
11:35 AM 73.4 °F 57.2 °F 57% 30.03 in 10.0 mi ESE 13.8 mph 20.7 mph N/A   Clear
11:55 AM 77.0 °F 59.0 °F 54% 30.03 in 10.0 mi East 16.1 mph 20.7 mph N/A   Scattered Clouds
12:15 PM 77.0 °F 59.0 °F 54% 30.03 in 10.0 mi ESE 15.0 mph 19.6 mph N/A   Mostly Cloudy
12:35 PM 78.8 °F 59.0 °F 51% 30.03 in 10.0 mi East 13.8 mph 19.6 mph N/A   Mostly Cloudy
12:55 PM 77.0 °F 59.0 °F 54% 30.03 in 10.0 mi ESE 13.8 mph 19.6 mph N/A   Mostly Cloudy
1:15 PM 78.8 °F 59.0 °F 51% 30.04 in 10.0 mi ESE 19.6 mph 24.2 mph N/A   Overcast
1:35 PM 78.8 °F 60.8 °F 54% 30.04 in 10.0 mi ESE 19.6 mph 25.3 mph N/A   Overcast
1:55 PM 77.0 °F 60.8 °F 57% 30.04 in 10.0 mi ESE 13.8 mph 23.0 mph N/A   Overcast
2:15 PM 77.0 °F 60.8 °F 57% 30.03 in 10.0 mi East 17.3 mph 23.0 mph N/A   Overcast
2:35 PM 77.0 °F 60.8 °F 57% 30.03 in 10.0 mi ESE 10.4 mph - N/A   Overcast
2:55 PM 77.0 °F 62.6 °F 61% 30.03 in 10.0 mi East 13.8 mph 20.7 mph N/A   Overcast
3:15 PM 78.8 °F 62.6 °F 57% 30.03 in 10.0 mi ESE 18.4 mph 24.2 mph N/A   Overcast
3:35 PM 78.8 °F 62.6 °F 57% 30.01 in 10.0 mi ESE 16.1 mph 27.6 mph N/A   Overcast
3:55 PM 75.2 °F 59.0 °F 57% 30.01 in 10.0 mi East 18.4 mph 28.8 mph N/A   Overcast
4:15 PM 75.2 °F 60.8 °F 61% 30.00 in 10.0 mi East 20.7 mph 25.3 mph N/A   Overcast
4:35 PM 73.4 °F 59.0 °F 61% 30.02 in 10.0 mi East 17.3 mph 26.5 mph N/A   Overcast
4:55 PM 69.8 °F 55.4 °F 60% 30.01 in 10.0 mi ENE 16.1 mph 23.0 mph N/A   Overcast
5:15 PM 71.6 °F 57.2 °F 60% 29.99 in 10.0 mi ENE 13.8 mph 23.0 mph N/A   Mostly Cloudy
5:35 PM 77.0 °F 59.0 °F 54% 29.98 in 10.0 mi East 21.9 mph 26.5 mph N/A   Scattered Clouds
5:55 PM 77.0 °F 59.0 °F 54% 29.99 in 10.0 mi East 17.3 mph 23.0 mph N/A   Clear
6:15 PM 75.2 °F 59.0 °F 57% 29.99 in 10.0 mi East 15.0 mph 25.3 mph N/A   Scattered Clouds
6:35 PM 73.4 °F 57.2 °F 57% 29.99 in 10.0 mi East 20.7 mph 26.5 mph N/A   Overcast
6:55 PM 71.6 °F 57.2 °F 60% 29.99 in 10.0 mi East 19.6 mph 25.3 mph N/A   Mostly Cloudy
7:15 PM 69.8 °F 57.2 °F 64% 29.99 in 10.0 mi East 16.1 mph 25.3 mph N/A   Clear
7:35 PM 71.6 °F 57.2 °F 60% 29.97 in 10.0 mi East 21.9 mph 26.5 mph N/A   Clear
7:55 PM 71.6 °F 59.0 °F 64% 29.97 in 10.0 mi East 23.0 mph 35.7 mph N/A   Clear
8:15 PM 69.8 °F 57.2 °F 64% 29.99 in 10.0 mi East 20.7 mph 29.9 mph N/A   Clear
8:35 PM 69.8 °F 57.2 °F 64% 30.00 in 10.0 mi East 16.1 mph 24.2 mph N/A   Scattered Clouds
8:55 PM 68.0 °F 57.2 °F 68% 30.01 in 10.0 mi East 18.4 mph - N/A   Mostly Cloudy
9:15 PM 66.2 °F 57.2 °F 73% 30.02 in 10.0 mi East 13.8 mph - N/A   Scattered Clouds
9:35 PM 66.2 °F 59.0 °F 78% 30.03 in 10.0 mi East 13.8 mph - N/A   Mostly Cloudy
9:55 PM 66.2 °F 59.0 °F 78% 30.03 in 10.0 mi East 15.0 mph 24.2 mph N/A   Mostly Cloudy
10:15 PM 64.4 °F 57.2 °F 77% 30.05 in 10.0 mi East 13.8 mph 17.3 mph N/A   Mostly Cloudy
10:35 PM 64.4 °F 57.2 °F 77% 30.07 in 10.0 mi East 8.1 mph - N/A   Overcast
10:55 PM 66.2 °F 59.0 °F 78% 30.10 in 10.0 mi East 17.3 mph 23.0 mph N/A   Overcast
11:15 PM 66.2 °F 59.0 °F 78% 30.12 in 10.0 mi ESE 11.5 mph 16.1 mph N/A   Overcast
11:35 PM 64.4 °F 59.0 °F 83% 30.12 in 10.0 mi ESE 11.5 mph - N/A   Overcast
11:55 PM 64.4 °F 59.0 °F 83% 30.10 in 10.0 mi East 10.4 mph - N/A   Overcast